Location: Iesi
(43.5167°N, 13.2333°E)
Time: 16:19:08
(UTC+00:00)

Envisat - Visible Passes

Search period start: 27 October 2020 00:00
Search period end: 06 November 2020 00:00
Orbit: 764 x 766 km, 98.1° (Epoch: 27 October)

Date Brightness Start Highest point End Pass type
(mag) Time Alt. Az. Time Alt. Az. Time Alt. Az.
27 Oct 6.4 03:44:24 10° ENE 03:46:38 13° E 03:48:50 10° ESE visible
27 Oct 4.0 16:36:53 10° S 16:41:50 54° W 16:46:50 10° NNW visible
28 Oct 4.2 04:44:28 10° NNE 04:49:24 48° E 04:54:17 10° S visible
28 Oct 6.3 17:41:51 10° WSW 17:44:34 14° W 17:47:17 10° WNW visible
29 Oct 5.7 04:08:24 10° NE 04:12:21 22° E 04:16:16 10° SE visible
29 Oct 5.1 17:02:55 10° SSW 17:07:24 31° W 17:11:54 10° NNW visible
30 Oct 3.2 05:09:45 10° NNE 05:14:53 83° ESE 05:19:57 10° SSW visible
30 Oct 3.5 16:25:24 10° S 16:30:27 68° WSW 16:35:32 10° NNW visible
31 Oct 4.7 04:33:14 10° NNE 04:37:58 38° E 04:42:40 10° SSE visible
31 Oct 6.0 17:29:36 10° SW 17:33:03 18° W 17:36:32 10° NW visible
01 Nov 6.0 03:57:28 10° NE 04:00:52 18° E 04:04:14 10° SE visible
01 Nov 4.6 16:51:14 10° SSW 16:55:57 39° W 17:00:43 10° NNW visible
02 Nov 3.5 04:58:25 10° NNE 05:03:30 66° ESE 05:08:31 10° S visible
03 Nov 5.1 04:22:03 10° NE 04:26:32 30° E 04:30:58 10° SSE visible
03 Nov 5.6 17:17:36 10° SW 17:21:35 23° W 17:25:34 10° NW visible
04 Nov 6.3 03:46:45 10° ENE 03:49:21 14° E 03:51:57 10° ESE visible
04 Nov 4.1 16:39:37 10° S 16:44:32 49° W 16:49:29 10° NNW visible
05 Nov 4.0 04:47:06 10° NNE 04:52:05 52° E 04:57:02 10° S visible
05 Nov 6.3 17:44:55 10° WSW 17:47:17 13° W 17:49:39 10° WNW visible
